CZ-6A DEB

Satellite information

Favourite Embed

Satellite Type and Status

DEBRISIN ORBIT

Key statistics

Satellite CZ-6A DEB at a glance.

Uptime

910

Days in orbit

Revolutions

≈ 14.1

Per day

Orbit

SSO

Sun Synchronous Orbit

Inclination

98.8

Latest

Satellite identification and parameters

Extended collection of information and parameters for CZ-6A DEB.

Object identification

Identified? True

Debris? True

Object name: CZ-6A DEB

International designator: 2022-151AHC

Object number (NORAD): 56676

Object ID (CCSDS): 56676

Country: PEOPLES REPUBLIC OF CHINA (PRC)

Current information (Y/N): Y

RCS size: SMALL

Orbital parameters

Period: 102.154 minutes

Inclination: 98.847 deg

SMA: 7238.771 km

Apoapsis: 893.707 km

Periapsis: 827.565 km

RAAN: 132.8068 deg

Eccentricy: 0.0045686

Argument of periapsis: 42.8342 deg

Mean anomaly: 317.6373 deg

Mean motion: 14.09631196 rev/day

Mean motion (dot): 0.00000228 rev/day2

B* drag term: 0.00015345 1/REarth

Two-line elements (TLE)

Creation date: May 9, 2025, 2:46 a.m.

Reference frame: TEME

Reference center: EARTH

Epoch: May 8, 2025, 11:02 a.m. UTC

TLE line 0: 0 CZ-6A DEB

TLE line 1: 1 56676U 22151AHC 25128.46001034 .00000228 00000-0 15345-3 0 9990

TLE line 2: 2 56676 98.8470 132.8068 0045686 42.8342 317.6373 14.09631196104801

Live tracking on map

Real-time ground track for satellite CZ-6A DEB.

In-orbit conjunctions

A list of the most updated potential collisions computed for object CZ-6A DEB.

Target Orbit TCA Probability of collision Miss distance Type
DELTA 1 DEB SSO 2024-12-15 19:18:36 0.0003929718 80.0 (m) DEBRIS
COSMOS 1275 DEB LEO 2024-12-06 09:37:34 0.0001184602 543.0 (m) DEBRIS
CZ-6A R/B SSO 2024-11-21 05:02:51 0.0001433951 585.0 (m) ROCKET BODY

Associated space launch

Chinese satellite reported for atmospheric/ocean/environmental/spatial parameter research purposes, details TBD.

CZ-6A DEB was lifted into orbit during the mission ‘Long March 6A | Yunhai 3’, on board a Long March 6A space rocket.

The launch took place on Nov. 11, 2022, 10:52 p.m. from Launch Complex 9A.

For more information about the launch, click the button.

Launch to space Long March 6A | Yunhai 3
Long March 6A | Yunhai 3

Agency: N/A

Status: Launch Successful

Launch date: Nov. 11, 2022, 10:52 p.m. UTC

Rocket: Long March 6A

Launch pad: Launch Complex 9A

Location: Taiyuan Satellite Launch Center, People's Republic of China

...

Latest news about this satellite

There are no fresh news available about this satellite. Check back as we update our databases every day.


Newsletter sign-up

Weekly statistics, charts and insights to help you stay on top of the space industry.